Погода в Сортавале

Хотите узнать прогноз погоды в Сортавале? Тогда Вам сюда: Погода в Сортавале

Поиск расширенной информации на нашем сайте:

Полезная информация:

Новости сайта



02.01.2020
Опубликован Долгосрочный прогноз погоды по городам России и ближнего зарубежья на январь 2020 года.
Карты: Прогноз на январь и февраль 2020 года, Сравнение прогнозируемой аномалии приземной температуры воздуха на январь 2020 года по разным моделям.




Погода в Сортавале - сегодня

Время (UTC), дата Ветер
(°,м/с) 
Видим.   Явления Облачность Т
(°С)
Тd
(°С)
f(%) Тe
(°С)
Pmin
(гПа)
dP
(гПа)
Po
(мм)
O2
(г/м3)
Тmin Tmax R s Состояние
почвы
21 15.01.22 300 (СЗ) 50000 м    6/6 900 м кучево-дожд. 
[Cb cap]
-4.4 -7.9 77 -6  1007.1  0.6  754  309           
00 16.01.22 250 (З) 50000 м    ясно 
-7.6 -9.1 89 -7  1006.6  -0.5  753  313           
03 16.01.22 тихо ()   50000 м    10/0 средняя 
[Ac und]
-10.1 -11 93 -10  1003.8  -2.8  751  315  -10.2         
06 16.01.22 190 (Ю) 40000 м    9/8 1230 м средняя 
[Sc|Ac trans]
-5.8 -7 91 -5  999.7  -4.1  748  309  -10.2      34  равномерный
мокрый или
старый снег
100% 
09 16.01.22 230 (ЮЗ) 20000 м    9/4 1000 м средняя, верхняя 
[Sc|Ac trans|Ci fib]
-3.6 -6.2 82 -5  996.9  -2.8  746  305           
12 16.01.22 220 (ЮЗ) 20000 м    9/3 600 м средняя, верхняя 
[Sc|Ac trans|Ci fib]
-1.1 -5.1 74 -4  992.9  -3.9  743  301           
15 16.01.22 200 (Ю) 8000 м  слаб. ливневой снег  10/10 360 м кучево-дожд. 
[Cb cap]
-0.6 -2 90 -1  988.1  -4.8  739  299      0.0     
18 16.01.22 220 (ЮЗ) 50000 м  {ливн. осадки}  10/10 400 м кучево-дожд. 
[Cb cap]
+1 -1.1 86 -1  982.1  -6  735  295    +1  0.0     
21 16.01.22 240 (ЮЗ) 3{10}  6000 м  слаб. ливневой снег  10/10 300 м кучево-дожд. 
[Cb cap]
+0.6 -0.3 94 -1  978.6  -3.5  732  294           
00 17.01.22 260 (З) 50000 м  {ливн. осадки}  6/6 800 м 
[Sc]
+0 -1.9 87 -2  979.4  0.8  733  295           
03 17.01.22 200 (Ю) 50000 м    9/0 средняя, верхняя 
[Ac trans|Ci fib]
-4.4 -5.2 94 -4  978.3  -1.1  732  300  -4.5       
06 17.01.22 тихо ()   50000 м    9/0 средняя, верхняя 
[Ac trans|Ci fib]
-4.9 -5.6 95 -5  978.3  732  301  -6.4    34  равномерный
мокрый или
старый снег
100% 
09 17.01.22 270 (З) 20000 м    8/0 средняя, верхняя 
[Ac trans|Ci fib]
-3.5 -5.4 87 -6  980.2  1.9  733  300           
12 17.01.22 300 (СЗ) 5-10{12}  2300 м  снег  10/0 средняя 
[Ac As]
-3.2 -5.8 82 -7  983.2  736  301           
15 17.01.22 310 (СЗ) 6-13{13}  50000 м  позёмок{снег}  9/6 600 м кучево-дожд., средняя, верхняя 
[Cb cap|Ac trans|Ci fib]
-5 -9 73 -9  988.5  5.2  740  304      0.0     
18 17.01.22 310 (СЗ) 5{12}  50000 м  позёмок{снег}  8/3 1000 м средняя, верхняя 
[Sc|Ac trans|Ci fib]
-6.1 -10.9 69 -10  992.1  3.6  742  307    -2.8  0.0     
21 17.01.22 320 (СЗ) 6-11{11}  50000 м  позёмок  8/0 средняя, верхняя 
[Ac trans|Ci]
-6 -11.1 67 -11  996.6  4.5  746  308           
00 18.01.22 320 (СЗ) 6-10{12}  50000 м  позёмок  ясно 
-6.6 -11.8 66 -11  1001.2  4.6  749  310           
03 18.01.22 320 (СЗ) 5{11}  50000 м    ясно 
-7 -12.3 66 -11  1005.9  4.7  753  312  -7.1         
06 18.01.22 320 (СЗ) 50000 м    ясно 
-7.5 -11.6 72 -10  1009  3.1  755  314  -7.6      34  равномерный
сухой снег
100% 
09 18.01.22 310 (СЗ) 20000 м    9/0 верхняя 
[Ci fib]
-7.3 -10.8 76 -11  1012.3  3.3  757  315           
12 18.01.22 260 (З) 20000 м    9/0 средняя, верхняя 
[Ac trans|Ci fib]
-7.2 -10.9 75 -7  1013.9  1.6  759  315           
15 18.01.22 240 (ЮЗ) 50000 м    9/0 средняя, верхняя 
[Ac trans|Ci fib]
-9.1 -11.4 83 -9  1014.8  0.8  759  318           
18 18.01.22 220 (ЮЗ) 50000 м    10/0 средняя 
[Ac und]
-8.7 -10.5 87 -8  1012.3  -2.4  757  316    -6.8       
21 18.01.22 160 (Ю) 50000 м    9/5 500 м средняя 
[Sc|Ac trans]
-6.6 -8.7 85 -6  1009.7  -2.6  755  313           
Время (UTC), дата Ветер
(°,м/с) 
Видим.   Явления Облачность Т
(°С)
Тd
(°С)
f(%) Тe
(°С)
Pmin
(гПа)
dP
(гПа)
Po
(мм)
O2
(г/м3)
Тmin Tmax R s Состояние
почвы

Для получения пояснительной информации подведите курсор к названию столбца.

ПОГОДА в Сортавале - архив

Всё, что Вы хотите узнать о погоде в Сортавале - удобно и подробно!

Выберите нужную дату (начиная с 1 января 2019* года) и нажмите кнопку "Найти".
Будут отображены архивные сводки погоды по пункту Сортавала, начиная с указанной даты.


Отображать данные в формате CSV (для использования в таблицах Excel)


Внимание! Наш архив погоды предназначен исключительно для личного некоммерческого использования в познавательных целях. Если Вам необходимы официальные справки о состоянии погоды (для производственных, юридических, коммерческих и т.п. целей), обращайтесь в органы Росгидромета.

*Примечание: данная дата относится к архиву по метеостанциям СССР (Россия, СНГ, Балтия).
Архив по метеостанциям Зарубежной Европы и Азии (кроме Китая) хранится 10 дней, по другим регионам земного шара (Китай, Африка, Америка, Австралия, Океания) - 1 день.

Сортавала - район местоположения метеостанции


Название, широта, долгота, высота метеостанции:
Сортавала 61.7°ш. 30.7°д. 19 м над ур. моря [Российская Федерация]

Дополнительная информация

В oтличие oт бoльшинства пoгoдных сайтoв мы публикуем пoдрoбную метеoинфoрмацию в детальнoм прoфессиoнальнoм фoрмате.

Характеристики температуры и влажнoсти вoздуха измеряются на высoте 2 м в тени вдали oт зданий и деревьев.
Скoрoсть ветра измеряется на высoте 10 м (на урoвне рoста челoвека скoрoсть ветра ниже в 1.5-2 раза). Если метеoстанция нахoдится в гoрoде или в лесу, тo скoрoсть ветра занижена на 2-4 м/с пo сравнению с oткрытым местoм. Скoрoсть ветра над акватoриями крупных рек и oзёр, а также на вершинах хoлмoв на 2-5 м/с выше, чем в oбычных услoвиях.
Атмoсфернoе давление в разных тoчках местнoсти мoжет значительнo oтличаться oт давления на метеoстанции, в зависимoсти oт услoвий рельефа (при пoдъёме на 10 м давление пoнижается примернo на 1 мм рт.ст.).